Regional Weather Roundup
Issued by NWS Midland/Odessa, TX

Skip options and go directly to product.
Home | Oldest Version | Next Version | Current Version | All | Text Only | Save Text | Print | Product List | Glossary On

Skip product version selection by date and time.   
757
ASUS44 KMAF 281201
RWRMAF
MIDLAND AREA WEATHER ROUNDUP
NATIONAL WEATHER SERVICE MIDLAND TX
600 AM CST SAT FEB 28 2015

...IN SOUTHWEST TEXAS AND SOUTHEAST NEW MEXICO...

CITY           SKY/WX    TMP DP  RH WIND       PRES   REMARKS
ALPINE         CLOUDY    28  28  99 S3        30.10S
ANDREWS        CLOUDY    18  16  95 MISG      30.17R FOG
ARTESIA        CLOUDY    21  21 100 SE13      30.12S WCI   9
BIG SPRING     CLOUDY   N/A N/A N/A NE8       30.24S
CARLSBAD       CLOUDY    22  19  89 SE10      30.12S FOG     WCI  11
DRYDEN           N/A     33  31  92 NE8       30.15R WCI  26
FORT STOCKTON  CLOUDY    24  24 100 E10       30.14R FOG     WCI  14
GUAD PASS      CLOUDY    17  14  88 NE10      29.98R FOG     WCI   5
HOBBS          CLOUDY    18  18 100 E7        30.13S FOG     WCI   8
MARFA          CLOUDY    28  28 100 NE3       30.04R
MIDLAND AIRPK  CLOUDY    21  19  91 E6        30.20R FOG     WCI  14
MIDLAND INTL   CLOUDY    21  19  92 E9        30.19R FOG     WCI  11
ODESSA         CLOUDY    20  17  88 E10       30.17S FOG     WCI   9
PECOS          CLOUDY    23  22  95 E5        30.19R FOG     WCI  17
PRESIDIO       CLOUDY    36  30  79 NE9       30.06R WCI  29
SEMINOLE       CLOUDY   N/A N/A N/A E7        30.18R FOG
SNYDER         CLOUDY   N/A N/A N/A E7        30.25R HAZE
WINK           CLOUDY    24  19  81 E8        30.16R WCI  15
$$
...OTHER STATIONS IN TEXAS...

CITY           SKY/WX    TMP DP  RH WIND       PRES   REMARKS
ABILENE        CLOUDY    21  19  92 NE5       30.29S FOG     WCI  15
AMARILLO       CLOUDY    11   9  92 SE9       30.15S FOG     WCI  -2
AUSTIN         FRZ DRZL  31  29  92 N13       30.29S FOG     WCI  21
BROWNSVILLE    FOG       50  49  96 NW9       30.16R VSB 1
CORPUS CHRISTI LGT RAIN  49  47  93 N14       30.18R
DALLAS FTW     CLOUDY    27  24  89 NE8       30.38S WCI  19
DEL RIO        CLOUDY    35  34  96 SE6       30.23R FOG     WCI  30
EL PASO        PTCLDY    28  21  75 CALM      29.98R
HOUSTON INT    CLOUDY    38  34  85 NE9       30.30F WCI  31
LUBBOCK        FRZ DRZL  14  12  92 SE9       30.17S WCI   2
SAN ANGELO     FRZ RAIN  25  23  92 E13       30.24F FOG     WCI  14
SAN ANTONIO    LGT RAIN  34  31  88 N9        30.25R FOG     WCI  27
WACO           CLOUDY    29  25  85 N10       30.35S WCI  20
WICHITA FALLS  NOT AVBL
$$
...OTHER LOCATIONS IN NEW MEXICO...

CITY           SKY/WX    TMP DP  RH WIND       PRES   REMARKS
ALAMAGORDO     PTCLDY    25  21  86 CALM      29.98R
ALBUQUERQUE    SNOW      20  18  92 NW6       29.90R VSB 1/2 WCI  12
CANNON AFB     CLOUDY    12  10  90 S5        30.08R FOG     WCI   4
CLOVIS         CLOUDY    12   9  85 S5        30.09R WCI   4
HOLLOMAN AFB   PTCLDY    23  19  86 N5        29.97R WCI  17
ROSWELL        CLOUDY    20  18  92 S12       30.09S WCI   8
RUIDOSO        CLOUDY    12  10  92 CALM      29.90S FOG
SANTA FE       LGT SNOW  16  12  84 SE12      29.86S FOG     WCI   3
TRUTH OR CONSE CLOUDY    33  24  69 S8        29.87S WCI  26
TUCUMCARI      CLOUDY    15  11  83 S12       30.06F WCI   2
$$

USA.gov is the U.S. government's official web portal to all federal, state and local government web resources and services.